,,PA_Meas_PMT16A,,PR_Meas_QMR101_102,,RH_Meas_QMH101,,SR_Meas_QMS101,,TA_Meas_QMH101,,GenWind,,GenWind,
time,status,PA,status,PR,status,RH,status,SR,status,TA,status,DirAvg,status,SpdAvg,
2011-10-06, 00:00:05,VALID,919.712,VALID,0,VALID,96.0245,VALID,0,VALID,18.8839,VALID,26,VALID,0.277344,
2011-10-06, 00:01:05,VALID,919.657,VALID,0,VALID,95.9483,VALID,0,VALID,18.8449,VALID,26,VALID,0.376563,
2011-10-06, 00:02:05,VALID,919.658,VALID,0,VALID,96.0245,VALID,0.107441,VALID,18.8254,VALID,26,VALID,0.4875,
2011-10-06, 00:03:05,VALID,919.615,VALID,0,VALID,96.1465,VALID,0,VALID,18.8658,VALID,26,VALID,0.335156,
2011-10-06, 00:04:05,VALID,919.595,VALID,0,VALID,96.1846,VALID,0,VALID,18.8644,VALID,26,VALID,0.363281,
2011-10-06, 00:05:05,VALID,919.601,VALID,0,VALID,96.177,VALID,0,VALID,18.8254,VALID,26,VALID,0.0625,
2011-10-06, 00:06:05,VALID,919.582,VALID,0,VALID,96.1923,VALID,0,VALID,18.8449,VALID,26,VALID,0.535156,
2011-10-06, 00:07:05,VALID,919.552,VALID,0,VALID,96.1236,VALID,0,VALID,18.8059,VALID,26,VALID,0.284766,
2011-10-06, 00:08:05,VALID,919.581,VALID,0,VALID,96.0322,VALID,0,VALID,18.7669,VALID,26,VALID,0,
2011-10-06, 00:09:05,VALID,919.56,VALID,0,VALID,96.1694,VALID,0,VALID,18.7474,VALID,26,VALID,0.333594,
2011-10-06, 00:10:05,VALID,919.565,VALID,0,VALID,96.2304,VALID,0,VALID,18.7669,VALID,26,VALID,0.204688,
2011-10-06, 00:11:05,VALID,919.547,VALID,0,VALID,96.2761,VALID,0,VALID,18.7864,VALID,26,VALID,0,
2011-10-06, 00:12:05,VALID,919.557,VALID,0,VALID,96.3447,VALID,0,VALID,18.8059,VALID,26,VALID,0.377734,
2011-10-06, 00:13:05,VALID,919.525,VALID,0,VALID,96.421,VALID,0,VALID,18.8254,VALID,25,VALID,1.06406,
2011-10-06, 00:14:05,VALID,919.498,VALID,0,VALID,96.421,VALID,0,VALID,18.8644,VALID,25,VALID,0.620313,
2011-10-06, 00:15:05,VALID,919.485,VALID,0,VALID,96.4362,VALID,0,VALID,18.9034,VALID,25,VALID,0.451562,
2011-10-06, 00:16:04,VALID,919.471,VALID,0,VALID,96.3829,VALID,0,VALID,18.9229,VALID,26,VALID,0.021875,
2011-10-06, 00:17:04,VALID,919.444,VALID,0,VALID,96.3524,VALID,0,VALID,18.9438,VALID,26,VALID,0.227734,
2011-10-06, 00:18:04,VALID,919.411,VALID,0,VALID,96.2533,VALID,0,VALID,18.9229,VALID,26,VALID,0,
2011-10-06, 00:19:04,VALID,919.384,VALID,0,VALID,96.2228,VALID,0,VALID,18.9424,VALID,26,VALID,0,
2011-10-06, 00:20:04,VALID,919.378,VALID,0,VALID,96.1008,VALID,0,VALID,18.9034,VALID,26,VALID,0,
2011-10-06, 00:21:04,VALID,919.361,VALID,0,VALID,96.0093,VALID,0,VALID,18.8839,VALID,26,VALID,0.396875,
2011-10-06, 00:22:04,VALID,919.358,VALID,0,VALID,95.895,VALID,0,VALID,18.8853,VALID,26,VALID,0.140234,
2011-10-06, 00:23:04,VALID,919.35,VALID,0,VALID,96.0703,VALID,0,VALID,18.9243,VALID,26,VALID,0.178906,
2011-10-06, 00:24:04,VALID,919.329,VALID,0,VALID,96.0779,VALID,0,VALID,18.9619,VALID,26,VALID,0,
2011-10-06, 00:25:04,VALID,919.337,VALID,0,VALID,95.9941,VALID,0,VALID,18.9424,VALID,26,VALID,0,
2011-10-06, 00:26:04,VALID,919.293,VALID,0,VALID,95.9254,VALID,0,VALID,18.9229,VALID,26,VALID,0.0515625,
2011-10-06, 00:27:04,VALID,919.277,VALID,0,VALID,95.8568,VALID,0,VALID,18.9034,VALID,26,VALID,0.242188,
2011-10-06, 00:28:04,VALID,919.273,VALID,0,VALID,95.8873,VALID,0,VALID,18.8839,VALID,26,VALID,0.0242187,
2011-10-06, 00:29:04,VALID,919.268,VALID,0,VALID,95.8416,VALID,0,VALID,18.8853,VALID,26,VALID,0,
2011-10-06, 00:30:04,VALID,919.275,VALID,0,VALID,95.7882,VALID,0,VALID,18.8463,VALID,26,VALID,0,
2011-10-06, 00:31:04,VALID,919.244,VALID,0,VALID,95.8416,VALID,0,VALID,18.8449,VALID,26,VALID,0,
2011-10-06, 00:32:04,VALID,919.226,VALID,0,VALID,95.9026,VALID,0,VALID,18.8449,VALID,26,VALID,0.121094,
2011-10-06, 00:33:04,VALID,919.224,VALID,0,VALID,96.0398,VALID,0,VALID,18.8644,VALID,26,VALID,0.172656,
2011-10-06, 00:34:04,VALID,919.234,VALID,0,VALID,96.0017,VALID,0,VALID,18.8449,VALID,26,VALID,0.401563,
2011-10-06, 00:35:04,VALID,919.179,VALID,0,VALID,95.9636,VALID,0,VALID,18.8463,VALID,26,VALID,0,
2011-10-06, 00:36:04,VALID,919.189,VALID,0,VALID,95.9636,VALID,0,VALID,18.8658,VALID,26,VALID,0.00273437,
2011-10-06, 00:37:04,VALID,919.212,VALID,0,VALID,95.9559,VALID,0,VALID,18.8254,VALID,26,VALID,0.296484,
2011-10-06, 00:38:04,VALID,919.164,VALID,0,VALID,96.1694,VALID,0,VALID,18.9243,VALID,26,VALID,0.397266,
2011-10-06, 00:39:04,VALID,919.166,VALID,0,VALID,95.9864,VALID,0,VALID,18.8644,VALID,26,VALID,0.0730469,
2011-10-06, 00:40:04,VALID,919.163,VALID,0,VALID,95.8568,VALID,0,VALID,18.8254,VALID,26,VALID,0.230859,
2011-10-06, 00:41:04,VALID,919.191,VALID,0,VALID,95.6891,VALID,0,VALID,18.7669,VALID,26,VALID,0.338281,
2011-10-06, 00:42:04,VALID,919.173,VALID,0,VALID,95.7882,VALID,0,VALID,18.7864,VALID,26,VALID,0.141016,
2011-10-06, 00:43:04,VALID,919.164,VALID,0,VALID,95.9941,VALID,0,VALID,18.8268,VALID,26,VALID,0.297656,
2011-10-06, 00:44:04,VALID,919.163,VALID,0,VALID,96.1008,VALID,0,VALID,18.8853,VALID,26,VALID,0.495703,
2011-10-06, 00:45:04,VALID,919.14,VALID,0,VALID,95.9788,VALID,0,VALID,18.8449,VALID,26,VALID,0.376563,
2011-10-06, 00:46:04,VALID,919.099,VALID,0,VALID,95.8873,VALID,0,VALID,18.8463,VALID,26,VALID,0.5625,
2011-10-06, 00:47:04,VALID,919.099,VALID,0,VALID,95.895,VALID,0,VALID,18.8254,VALID,26,VALID,0.536719,
2011-10-06, 00:48:04,VALID,919.084,VALID,0,VALID,95.8873,VALID,0,VALID,18.8449,VALID,26,VALID,0.522656,
2011-10-06, 00:49:04,VALID,919.091,VALID,0,VALID,95.8263,VALID,0,VALID,18.8658,VALID,26,VALID,0.198437,
2011-10-06, 00:50:04,VALID,919.064,VALID,0,VALID,95.7654,VALID,0,VALID,18.8644,VALID,26,VALID,0.0535156,
2011-10-06, 00:51:04,VALID,919.024,VALID,0,VALID,95.6434,VALID,0,VALID,18.8658,VALID,26,VALID,0.178516,
2011-10-06, 00:52:04,VALID,919.011,VALID,0,VALID,95.6053,VALID,0,VALID,18.8449,VALID,26,VALID,0.633203,
2011-10-06, 00:53:04,VALID,919.027,VALID,0,VALID,95.5443,VALID,0,VALID,18.8644,VALID,26,VALID,0.566016,
2011-10-06, 00:54:04,VALID,918.978,VALID,0,VALID,95.4528,VALID,0,VALID,18.8839,VALID,26,VALID,0.645703,
2011-10-06, 00:55:04,VALID,918.954,VALID,0,VALID,95.3308,VALID,0,VALID,18.9034,VALID,26,VALID,0.26875,
2011-10-06, 00:56:04,VALID,918.947,VALID,0,VALID,95.3079,VALID,0,VALID,18.9243,VALID,26,VALID,0.369531,
2011-10-06, 00:57:04,VALID,918.93,VALID,0,VALID,95.2165,VALID,0,VALID,18.9438,VALID,26,VALID,0.280859,
2011-10-06, 00:58:04,VALID,918.939,VALID,0,VALID,95.2088,VALID,0,VALID,18.9438,VALID,26,VALID,0.450391,
2011-10-06, 00:59:04,VALID,918.932,VALID,0,VALID,95.1555,VALID,0,VALID,18.9424,VALID,26,VALID,0.154687,
2011-10-06, 01:00:04,VALID,918.938,VALID,0,VALID,95.064,VALID,0,VALID,18.9633,VALID,26,VALID,0.138281,
2011-10-06, 01:01:04,VALID,918.918,VALID,0,VALID,95.0259,VALID,0,VALID,18.9633,VALID,26,VALID,0,
2011-10-06, 01:02:04,VALID,918.917,VALID,0,VALID,95.0183,VALID,0,VALID,18.9633,VALID,26,VALID,0.0167969,
2011-10-06, 01:03:04,VALID,918.926,VALID,0,VALID,94.8429,VALID,0,VALID,18.9034,VALID,26,VALID,0.582031,
2011-10-06, 01:04:04,VALID,918.909,VALID,0,VALID,94.9039,VALID,0,VALID,18.9034,VALID,26,VALID,0.525391,
2011-10-06, 01:05:04,VALID,918.907,VALID,0,VALID,94.599,VALID,0,VALID,18.8658,VALID,26,VALID,0.291406,
2011-10-06, 01:06:04,VALID,918.941,VALID,0,VALID,94.82,VALID,0,VALID,18.8853,VALID,26,VALID,0.191406,
2011-10-06, 01:07:04,VALID,918.907,VALID,0,VALID,94.9192,VALID,0,VALID,18.8853,VALID,26,VALID,0.302734,
2011-10-06, 01:08:04,VALID,918.923,VALID,0,VALID,94.9573,VALID,0,VALID,18.8658,VALID,26,VALID,0.446484,
2011-10-06, 01:09:04,VALID,918.917,VALID,0,VALID,94.8277,VALID,0,VALID,18.8658,VALID,26,VALID,0.429297,
2011-10-06, 01:10:04,VALID,918.909,VALID,0,VALID,94.8124,VALID,0,VALID,18.8449,VALID,26,VALID,0.594531,
2011-10-06, 01:11:04,VALID,918.894,VALID,0,VALID,94.6523,VALID,0,VALID,18.8449,VALID,26,VALID,0.461719,
2011-10-06, 01:12:04,VALID,918.871,VALID,0,VALID,94.4389,VALID,0,VALID,18.8853,VALID,26,VALID,0.457031,
2011-10-06, 01:13:04,VALID,918.875,VALID,0,VALID,94.1339,VALID,0,VALID,18.9243,VALID,26,VALID,0.446484,
2011-10-06, 01:14:04,VALID,918.878,VALID,0,VALID,93.7833,VALID,0,VALID,18.8839,VALID,26,VALID,0.314453,
2011-10-06, 01:15:04,VALID,918.831,VALID,0,VALID,93.5927,VALID,0,VALID,18.8853,VALID,26,VALID,0.207422,
2011-10-06, 01:16:04,VALID,918.834,VALID,0,VALID,93.3868,VALID,0,VALID,18.8658,VALID,26,VALID,0.519531,
2011-10-06, 01:17:04,VALID,918.808,VALID,0,VALID,93.1353,VALID,0.107441,VALID,18.8839,VALID,26,VALID,0.604297,
2011-10-06, 01:18:04,VALID,918.805,VALID,0,VALID,92.9142,VALID,0,VALID,18.9243,VALID,25,VALID,0.340234,
2011-10-06, 01:19:04,VALID,918.785,VALID,0,VALID,92.6779,VALID,0,VALID,18.9034,VALID,25,VALID,0.39375,
2011-10-06, 01:20:04,VALID,918.795,VALID,0,VALID,92.6169,VALID,0,VALID,18.9034,VALID,26,VALID,0.713672,
2011-10-06, 01:21:04,VALID,918.807,VALID,0,VALID,92.3501,VALID,0,VALID,18.9034,VALID,26,VALID,0.582812,
2011-10-06, 01:22:04,VALID,918.787,VALID,0,VALID,92.2433,VALID,0,VALID,18.9034,VALID,26,VALID,0.371094,
2011-10-06, 01:23:04,VALID,918.784,VALID,0,VALID,93.2115,VALID,0,VALID,18.9828,VALID,26,VALID,0.437109,
2011-10-06, 01:24:04,VALID,918.785,VALID,0,VALID,93.6155,VALID,0,VALID,18.9828,VALID,26,VALID,0.172266,
2011-10-06, 01:25:04,VALID,918.754,VALID,0,VALID,93.0819,VALID,0,VALID,18.9828,VALID,26,VALID,0.625391,
2011-10-06, 01:26:04,VALID,918.76,VALID,0,VALID,91.9841,VALID,0,VALID,18.9633,VALID,26,VALID,0.0675781,
2011-10-06, 01:27:04,VALID,918.74,VALID,0,VALID,92.3653,VALID,0,VALID,18.9229,VALID,26,VALID,0.524219,
2011-10-06, 01:28:04,VALID,918.711,VALID,0,VALID,92.9218,VALID,0,VALID,18.9243,VALID,26,VALID,0.119141,
2011-10-06, 01:29:04,VALID,918.704,VALID,0,VALID,93.0895,VALID,0,VALID,18.8853,VALID,26,VALID,0.314844,
2011-10-06, 01:30:04,VALID,918.669,VALID,0,VALID,93.1505,VALID,0,VALID,18.8059,VALID,26,VALID,0.250781,
2011-10-06, 01:31:04,VALID,918.664,VALID,0,VALID,93.7528,VALID,0,VALID,18.8463,VALID,26,VALID,0.639453,
2011-10-06, 01:32:04,VALID,918.66,VALID,0,VALID,94.1339,VALID,0,VALID,18.8463,VALID,26,VALID,0.236719,
2011-10-06, 01:33:04,VALID,918.631,VALID,0,VALID,93.4859,VALID,0,VALID,18.8658,VALID,26,VALID,0.162109,
2011-10-06, 01:34:04,VALID,918.628,VALID,0,VALID,93.425,VALID,0,VALID,18.8254,VALID,26,VALID,0.334375,
2011-10-06, 01:35:04,VALID,918.613,VALID,0,VALID,94.0196,VALID,0,VALID,18.8658,VALID,26,VALID,0.130859,
2011-10-06, 01:36:04,VALID,918.573,VALID,0,VALID,94.477,VALID,0,VALID,18.8853,VALID,26,VALID,0,
2011-10-06, 01:37:04,VALID,918.582,VALID,0,VALID,94.6676,VALID,0,VALID,18.8644,VALID,26,VALID,0,
2011-10-06, 01:38:04,VALID,918.58,VALID,0,VALID,94.7591,VALID,0,VALID,18.8644,VALID,26,VALID,0,
2011-10-06, 01:39:04,VALID,918.558,VALID,0,VALID,94.5837,VALID,0,VALID,18.8463,VALID,26,VALID,0.19375,
2011-10-06, 01:40:04,VALID,918.569,VALID,0,VALID,94.5532,VALID,0,VALID,18.8268,VALID,26,VALID,0,
2011-10-06, 01:41:04,VALID,918.547,VALID,0,VALID,94.4465,VALID,0,VALID,18.8073,VALID,26,VALID,0,
2011-10-06, 01:42:04,VALID,918.568,VALID,0,VALID,94.2788,VALID,0,VALID,18.7669,VALID,26,VALID,0.0207031,
2011-10-06, 01:43:04,VALID,918.546,VALID,0,VALID,94.0425,VALID,0,VALID,18.7488,VALID,26,VALID,0.19375,
2011-10-06, 01:44:04,VALID,918.565,VALID,0,VALID,93.5469,VALID,0,VALID,18.6499,VALID,26,VALID,0.245312,
2011-10-06, 01:45:04,VALID,918.566,VALID,0,VALID,93.6308,VALID,0,VALID,18.5914,VALID,26,VALID,0.285547,
2011-10-06, 01:46:04,VALID,918.579,VALID,0,VALID,93.768,VALID,0,VALID,18.5525,VALID,26,VALID,0.600391,
2011-10-06, 01:47:04,VALID,918.527,VALID,0,VALID,93.4859,VALID,0,VALID,18.5525,VALID,26,VALID,0.545313,
2011-10-06, 01:48:04,VALID,918.517,VALID,0,VALID,92.8989,VALID,0,VALID,18.6124,VALID,26,VALID,0.433594,
2011-10-06, 01:49:04,VALID,918.531,VALID,0,VALID,92.0985,VALID,0,VALID,18.6499,VALID,26,VALID,0.233984,
2011-10-06, 01:50:04,VALID,918.557,VALID,0,VALID,91.481,VALID,0,VALID,18.6889,VALID,26,VALID,0.432813,
2011-10-06, 01:51:04,VALID,918.549,VALID,0,VALID,90.8178,VALID,0,VALID,18.7293,VALID,26,VALID,0.608594,
2011-10-06, 01:52:04,VALID,918.538,VALID,0,VALID,90.185,VALID,0,VALID,18.8087,VALID,26,VALID,0.970312,
2011-10-06, 01:53:04,VALID,918.533,VALID,0,VALID,89.4913,VALID,0,VALID,18.8268,VALID,26,VALID,1.02344,
2011-10-06, 01:54:04,VALID,918.536,VALID,0,VALID,89.1177,VALID,0,VALID,18.8644,VALID,26,VALID,1.03398,
2011-10-06, 01:55:04,VALID,918.521,VALID,0,VALID,89.0796,VALID,0,VALID,18.9243,VALID,26,VALID,0.580078,
2011-10-06, 01:56:04,VALID,918.541,VALID,0,VALID,89.0186,VALID,0,VALID,18.9243,VALID,26,VALID,0.828906,
2011-10-06, 01:57:04,VALID,918.523,VALID,0,VALID,88.9881,VALID,0.107441,VALID,18.9229,VALID,26,VALID,0.753125,
2011-10-06, 01:58:04,VALID,918.53,VALID,0,VALID,88.7975,VALID,0,VALID,18.9438,VALID,26,VALID,1.14648,
2011-10-06, 01:59:04,VALID,918.516,VALID,0,VALID,88.7975,VALID,0,VALID,18.9034,VALID,26,VALID,0.417188,
2011-10-06, 02:00:04,VALID,918.504,VALID,0,VALID,89.0339,VALID,0,VALID,18.9048,VALID,26,VALID,0.730078,
2011-10-06, 02:01:04,VALID,918.503,VALID,0,VALID,88.9576,VALID,0,VALID,18.9438,VALID,26,VALID,0.966016,
2011-10-06, 02:02:04,VALID,918.489,VALID,0,VALID,88.6908,VALID,0,VALID,18.9828,VALID,26,VALID,0.952734,
2011-10-06, 02:03:04,VALID,918.502,VALID,0,VALID,88.7137,VALID,0,VALID,18.9814,VALID,26,VALID,0.872266,
2011-10-06, 02:04:04,VALID,918.477,VALID,0,VALID,88.7213,VALID,0,VALID,18.9814,VALID,26,VALID,0.477734,
2011-10-06, 02:05:04,VALID,918.485,VALID,0,VALID,88.7442,VALID,0,VALID,18.9828,VALID,26,VALID,0.447266,
2011-10-06, 02:06:04,VALID,918.471,VALID,0,VALID,88.8204,VALID,0,VALID,18.9619,VALID,26,VALID,0.322266,
2011-10-06, 02:07:04,VALID,918.471,VALID,0,VALID,88.8204,VALID,0,VALID,18.9619,VALID,26,VALID,0.420312,
2011-10-06, 02:08:04,VALID,918.459,VALID,0,VALID,88.9424,VALID,0,VALID,19.0023,VALID,26,VALID,0.021875,
2011-10-06, 02:09:04,VALID,918.454,VALID,0,VALID,89.0339,VALID,0,VALID,18.9828,VALID,26,VALID,0.000390625,
2011-10-06, 02:10:04,VALID,918.428,VALID,0,VALID,88.9043,VALID,0,VALID,18.9828,VALID,26,VALID,0.236719,
2011-10-06, 02:11:04,VALID,918.417,VALID,0,VALID,88.8357,VALID,0,VALID,19.0023,VALID,26,VALID,0.347656,
2011-10-06, 02:12:04,VALID,918.403,VALID,0,VALID,88.7899,VALID,0,VALID,19.0023,VALID,26,VALID,0.280078,
2011-10-06, 02:13:04,VALID,918.391,VALID,0,VALID,89.0034,VALID,0,VALID,19.0023,VALID,26,VALID,0.302344,
2011-10-06, 02:14:04,VALID,918.376,VALID,0,VALID,89.1482,VALID,0,VALID,18.9828,VALID,26,VALID,0,
2011-10-06, 02:15:04,VALID,918.343,VALID,0,VALID,89.5065,VALID,0,VALID,18.9633,VALID,26,VALID,0.165625,
2011-10-06, 02:16:04,VALID,918.321,VALID,0,VALID,89.659,VALID,0,VALID,18.9048,VALID,26,VALID,0.159375,
2011-10-06, 02:17:04,VALID,918.298,VALID,0,VALID,89.781,VALID,0,VALID,18.8658,VALID,26,VALID,0.00273437,
2011-10-06, 02:18:04,VALID,918.286,VALID,0,VALID,89.7886,VALID,0,VALID,18.8463,VALID,26,VALID,0.35,
2011-10-06, 02:19:04,VALID,918.234,VALID,0,VALID,89.5751,VALID,0,VALID,18.8658,VALID,26,VALID,0,
2011-10-06, 02:20:04,VALID,918.226,VALID,0,VALID,89.7047,VALID,0,VALID,18.8658,VALID,26,VALID,0.176953,
2011-10-06, 02:21:04,VALID,918.213,VALID,0,VALID,89.7276,VALID,0,VALID,18.8853,VALID,26,VALID,0.291797,
2011-10-06, 02:22:04,VALID,918.235,VALID,0,VALID,89.9106,VALID,0,VALID,18.8658,VALID,26,VALID,0.549219,
2011-10-06, 02:23:04,VALID,918.202,VALID,0,VALID,90.3222,VALID,0,VALID,18.8463,VALID,26,VALID,0.292969,
2011-10-06, 02:24:04,VALID,918.178,VALID,0,VALID,88.6375,VALID,0,VALID,18.8853,VALID,26,VALID,1.29688,
2011-10-06, 02:25:04,VALID,918.203,VALID,0,VALID,88.0123,VALID,0,VALID,19.0398,VALID,26,VALID,1.22617,
2011-10-06, 02:26:04,VALID,918.185,VALID,0,VALID,86.5868,VALID,0,VALID,19.1193,VALID,27,VALID,0.701953,
2011-10-06, 02:27:04,VALID,918.207,VALID,0,VALID,87.4177,VALID,0,VALID,19.1973,VALID,27,VALID,0.91875,
2011-10-06, 02:28:04,VALID,918.182,VALID,0,VALID,88.02,VALID,0,VALID,19.2348,VALID,27,VALID,0.499609,
2011-10-06, 02:29:04,VALID,918.152,VALID,0,VALID,87.1814,VALID,0,VALID,19.2558,VALID,27,VALID,0.344141,
2011-10-06, 02:30:04,VALID,918.123,VALID,0,VALID,87.1738,VALID,0,VALID,19.2558,VALID,27,VALID,0.498828,
2011-10-06, 02:31:04,VALID,918.133,VALID,0,VALID,86.5334,VALID,0,VALID,19.2168,VALID,27,VALID,0.742188,
2011-10-06, 02:32:04,VALID,918.138,VALID,0,VALID,86.1598,VALID,0,VALID,19.2168,VALID,27,VALID,0.466797,
2011-10-06, 02:33:04,VALID,918.12,VALID,0,VALID,86.3885,VALID,0,VALID,19.2558,VALID,27,VALID,0.869531,
2011-10-06, 02:34:04,VALID,918.127,VALID,0,VALID,86.1446,VALID,0,VALID,19.2363,VALID,27,VALID,0.682813,
2011-10-06, 02:35:04,VALID,918.084,VALID,0,VALID,86.7392,VALID,0,VALID,19.2558,VALID,27,VALID,0.239063,
2011-10-06, 02:36:04,VALID,918.11,VALID,0,VALID,86.7697,VALID,0,VALID,19.1973,VALID,27,VALID,0,
2011-10-06, 02:37:04,VALID,918.086,VALID,0,VALID,86.4419,VALID,0,VALID,19.1778,VALID,27,VALID,0.86875,
2011-10-06, 02:38:04,VALID,918.087,VALID,0,VALID,86.7392,VALID,0,VALID,19.1778,VALID,27,VALID,0.603125,
2011-10-06, 02:39:04,VALID,918.1,VALID,0,VALID,86.3657,VALID,0,VALID,19.1778,VALID,27,VALID,0.704297,
2011-10-06, 02:40:04,VALID,918.034,VALID,0,VALID,86.1751,VALID,0,VALID,19.1373,VALID,27,VALID,0.760156,
2011-10-06, 02:41:04,VALID,918.085,VALID,0,VALID,85.611,VALID,0,VALID,19.2572,VALID,27,VALID,0.735547,
2011-10-06, 02:42:04,VALID,918.075,VALID,0,VALID,85.6033,VALID,0,VALID,19.3338,VALID,27,VALID,0.496875,
2011-10-06, 02:43:04,VALID,918.054,VALID,0,VALID,85.2527,VALID,0,VALID,19.3923,VALID,27,VALID,0.853906,
2011-10-06, 02:44:04,VALID,918.021,VALID,0,VALID,84.3683,VALID,0,VALID,19.3908,VALID,27,VALID,0.826953,
2011-10-06, 02:45:04,VALID,918.033,VALID,0,VALID,84.6199,VALID,0,VALID,19.5093,VALID,27,VALID,0.364844,
2011-10-06, 02:46:04,VALID,918.012,VALID,0,VALID,84.4522,VALID,0,VALID,19.5288,VALID,27,VALID,0.390234,
2011-10-06, 02:47:04,VALID,917.976,VALID,0,VALID,84.597,VALID,0,VALID,19.4898,VALID,27,VALID,0.419141,
2011-10-06, 02:48:04,VALID,917.953,VALID,0,VALID,84.5056,VALID,0,VALID,19.4673,VALID,27,VALID,0.544922,
2011-10-06, 02:49:04,VALID,917.95,VALID,0,VALID,85.1459,VALID,0,VALID,19.4493,VALID,27,VALID,0.632422,
2011-10-06, 02:50:04,VALID,917.951,VALID,0,VALID,84.9858,VALID,0,VALID,19.3518,VALID,27,VALID,0.811328,
2011-10-06, 02:51:04,VALID,917.937,VALID,0,VALID,85.2755,VALID,0,VALID,19.3143,VALID,27,VALID,1.02891,
2011-10-06, 02:52:04,VALID,917.935,VALID,0,VALID,85.3289,VALID,0,VALID,19.2738,VALID,27,VALID,0.549219,
2011-10-06, 02:53:04,VALID,917.911,VALID,0,VALID,85.0621,VALID,0,VALID,19.3128,VALID,27,VALID,0.710156,
2011-10-06, 02:54:04,VALID,917.936,VALID,0,VALID,84.7953,VALID,0,VALID,19.3518,VALID,27,VALID,0.535547,
2011-10-06, 02:55:04,VALID,917.878,VALID,0,VALID,84.9172,VALID,0,VALID,19.4118,VALID,27,VALID,0.266016,
2011-10-06, 02:56:04,VALID,917.914,VALID,0,VALID,85.0163,VALID,0,VALID,19.4118,VALID,27,VALID,0.0125,
2011-10-06, 02:57:04,VALID,917.89,VALID,0,VALID,84.8486,VALID,0,VALID,19.3908,VALID,27,VALID,0.345313,
2011-10-06, 02:58:04,VALID,917.907,VALID,0,VALID,84.719,VALID,0,VALID,19.3908,VALID,27,VALID,0.573438,
2011-10-06, 02:59:04,VALID,917.881,VALID,0,VALID,85.8625,VALID,0,VALID,19.3713,VALID,27,VALID,0.905078,
2011-10-06, 03:00:04,VALID,917.865,VALID,0,VALID,86.2208,VALID,0,VALID,19.3143,VALID,27,VALID,0.349219,
2011-10-06, 03:01:04,VALID,917.852,VALID,0,VALID,86.1827,VALID,0,VALID,19.2363,VALID,27,VALID,0.467578,
2011-10-06, 03:02:04,VALID,917.86,VALID,0,VALID,85.5195,VALID,0,VALID,19.2348,VALID,27,VALID,0.707422,
2011-10-06, 03:03:04,VALID,917.852,VALID,0,VALID,85.7939,VALID,0,VALID,19.3143,VALID,27,VALID,0.840234,
2011-10-06, 03:04:04,VALID,917.856,VALID,0,VALID,86.0684,VALID,0,VALID,19.2738,VALID,27,VALID,0.738672,
2011-10-06, 03:05:04,VALID,917.85,VALID,0,VALID,85.6338,VALID,0,VALID,19.2543,VALID,27,VALID,0.812109,
2011-10-06, 03:06:04,VALID,917.825,VALID,0,VALID,84.6733,VALID,0,VALID,19.2933,VALID,27,VALID,1.03555,
2011-10-06, 03:07:04,VALID,917.801,VALID,0,VALID,84.9553,VALID,0,VALID,19.3893,VALID,27,VALID,1.11289,
2011-10-06, 03:08:04,VALID,917.879,VALID,0,VALID,84.7953,VALID,0,VALID,19.4103,VALID,27,VALID,0.739453,
2011-10-06, 03:09:04,VALID,917.82,VALID,0,VALID,84.963,VALID,0,VALID,19.3908,VALID,27,VALID,0.623438,
2011-10-06, 03:10:04,VALID,917.85,VALID,0,VALID,84.0482,VALID,0,VALID,19.4103,VALID,27,VALID,0.524609,
2011-10-06, 03:11:04,VALID,917.845,VALID,0,VALID,84.4446,VALID,0,VALID,19.4478,VALID,27,VALID,0.472656,
2011-10-06, 03:12:04,VALID,917.855,VALID,0,VALID,84.5818,VALID,0,VALID,19.4883,VALID,27,VALID,0.00078125,
2011-10-06, 03:13:04,VALID,917.849,VALID,0,VALID,84.0939,VALID,0,VALID,19.4493,VALID,27,VALID,0.706641,
2011-10-06, 03:14:04,VALID,917.824,VALID,0,VALID,84.2921,VALID,0,VALID,19.4883,VALID,27,VALID,0.569141,
2011-10-06, 03:15:04,VALID,917.803,VALID,0,VALID,84.2845,VALID,0.107441,VALID,19.4883,VALID,27,VALID,0.523828,
2011-10-06, 03:16:04,VALID,917.821,VALID,0,VALID,84.9401,VALID,0,VALID,19.4688,VALID,27,VALID,0,
2011-10-06, 03:17:04,VALID,917.817,VALID,0,VALID,84.8867,VALID,0.107441,VALID,19.4088,VALID,27,VALID,0.351953,
2011-10-06, 03:18:04,VALID,917.808,VALID,0,VALID,84.5056,VALID,0,VALID,19.3713,VALID,27,VALID,0.679688,
2011-10-06, 03:19:04,VALID,917.813,VALID,0,VALID,84.8562,VALID,0.107441,VALID,19.3908,VALID,27,VALID,0.154687,
2011-10-06, 03:20:04,VALID,917.783,VALID,0,VALID,84.6047,VALID,0,VALID,19.3908,VALID,27,VALID,0.340625,
2011-10-06, 03:21:04,VALID,917.8,VALID,0,VALID,84.4446,VALID,0.107441,VALID,19.4103,VALID,27,VALID,0.398047,
2011-10-06, 03:22:04,VALID,917.822,VALID,0,VALID,85.3899,VALID,0,VALID,19.4088,VALID,27,VALID,0.0578125,
2011-10-06, 03:23:04,VALID,917.814,VALID,0,VALID,85.5576,VALID,0.107441,VALID,19.3893,VALID,27,VALID,0.625391,
2011-10-06, 03:24:04,VALID,917.791,VALID,0,VALID,85.367,VALID,0,VALID,19.3713,VALID,27,VALID,0.366406,
2011-10-06, 03:25:04,VALID,917.815,VALID,0,VALID,86.0684,VALID,0.107441,VALID,19.3113,VALID,27,VALID,0.731641,
2011-10-06, 03:26:04,VALID,917.795,VALID,0,VALID,85.3213,VALID,0,VALID,19.2738,VALID,27,VALID,0.4625,
2011-10-06, 03:27:04,VALID,917.771,VALID,0,VALID,85.8778,VALID,0,VALID,19.2334,VALID,27,VALID,0.641797,
2011-10-06, 03:28:04,VALID,917.793,VALID,0,VALID,85.7101,VALID,0,VALID,19.2348,VALID,30,VALID,0.564453,
2011-10-06, 03:29:04,VALID,917.813,VALID,0,VALID,85.5271,VALID,0,VALID,19.2558,VALID,30,VALID,0.978516,
2011-10-06, 03:30:04,VALID,917.799,VALID,0,VALID,85.8549,VALID,0.107441,VALID,19.2139,VALID,30,VALID,0.212109,
2011-10-06, 03:31:04,VALID,917.792,VALID,0,VALID,85.7024,VALID,0.107441,VALID,19.1944,VALID,30,VALID,0.409375,
2011-10-06, 03:32:04,VALID,917.77,VALID,0,VALID,86.3809,VALID,0,VALID,19.2153,VALID,30,VALID,0.354688,
2011-10-06, 03:33:04,VALID,917.763,VALID,0,VALID,86.2056,VALID,0.107441,VALID,19.1763,VALID,30,VALID,0.682813,
2011-10-06, 03:34:04,VALID,917.769,VALID,0,VALID,86.2894,VALID,0,VALID,19.1164,VALID,30,VALID,0.560547,
2011-10-06, 03:35:04,VALID,917.765,VALID,0,VALID,86.5868,VALID,0,VALID,19.1164,VALID,30,VALID,0.648047,
2011-10-06, 03:36:04,VALID,917.729,VALID,0,VALID,86.7087,VALID,0,VALID,19.0969,VALID,30,VALID,0.601953,
2011-10-06, 03:37:04,VALID,917.7,VALID,0,VALID,86.4343,VALID,0,VALID,19.0774,VALID,30,VALID,0.612109,
2011-10-06, 03:38:04,VALID,917.701,VALID,0,VALID,85.832,VALID,0,VALID,19.1178,VALID,30,VALID,0.899219,
2011-10-06, 03:39:04,VALID,917.677,VALID,0,VALID,85.5119,VALID,0,VALID,19.1958,VALID,30,VALID,1.0375,
2011-10-06, 03:40:04,VALID,917.69,VALID,0,VALID,85.428,VALID,0.107441,VALID,19.2348,VALID,30,VALID,0.614453,
2011-10-06, 03:41:04,VALID,917.685,VALID,0,VALID,85.6796,VALID,0,VALID,19.2738,VALID,30,VALID,0.128125,
2011-10-06, 03:42:04,VALID,917.706,VALID,0,VALID,86.3428,VALID,0,VALID,19.2528,VALID,30,VALID,0.182422,
2011-10-06, 03:43:04,VALID,917.657,VALID,0,VALID,85.6643,VALID,0,VALID,19.2543,VALID,30,VALID,0.858984,
2011-10-06, 03:44:04,VALID,917.645,VALID,0,VALID,85.7558,VALID,0,VALID,19.2933,VALID,30,VALID,0.907422,
2011-10-06, 03:45:04,VALID,917.668,VALID,0,VALID,85.6262,VALID,0,VALID,19.2933,VALID,30,VALID,0.530859,
2011-10-06, 03:46:04,VALID,917.658,VALID,0,VALID,85.771,VALID,0,VALID,19.2543,VALID,30,VALID,0.392969,